• In Russia
  • List of Countries
  • For 7 days
  • Water Temperature
  • Satellite Maps
  • Weather Map
  • Weather Widgets
  • user-avatar
    Login

    Hourly Weather Safaga

    Today, 19 January, Saturday

    Time Temperature Precipitation Wind Pressure Humidity
    00:00 +8°C° 0 mm 0 mps 706 mmHg 48%
    01:00 +8°C° 0 mm 0 mps 706 mmHg 50%
    02:00 +7°C° 0 mm 0 mps 705 mmHg 51%
    03:00 +7°C° 0 mm 0 mps 705 mmHg 51%
    04:00 +6°C° 0 mm 0 mps 705 mmHg 52%
    05:00 +6°C° 0 mm 0 mps 705 mmHg 52%
    06:00 +8°C° 0 mm 0 mps 705 mmHg 46%
    07:00 +9°C° 0 mm 0 mps 706 mmHg 39%
    08:00 +12°C° 0 mm 0 mps 706 mmHg 31%
    09:00 +13°C° 0 mm 0 mps 707 mmHg 26%
    10:00 +15°C° 0 mm 0 mps 707 mmHg 22%
    11:00 +16°C° 0 mm 0 mps 707 mmHg 18%
    12:00 +19°C° 0 mm 1 mps 707 mmHg 16%
    13:00 +20°C° 0 mm 1 mps 707 mmHg 14%
    14:00 +21°C° 0 mm 1 mps 707 mmHg 13%
    15:00 +20°C° 0 mm 1 mps 707 mmHg 15%
    16:00 +19°C° 0 mm 1 mps 706 mmHg 17%
    17:00 +18°C° 0 mm 1 mps 706 mmHg 19%
    18:00 +16°C° 0 mm 1 mps 706 mmHg 23%
    19:00 +15°C° 0 mm 1 mps 706 mmHg 28%
    20:00 +12°C° 0 mm 0 mps 706 mmHg 32%
    21:00 +12°C° 0 mm 0 mps 706 mmHg 34%
    22:00 +11°C° 0 mm 0 mps 706 mmHg 37%
    23:00 +11°C° 0 mm 0 mps 706 mmHg 39%

    Tomorrow, 20 January, Sunday

    Time Temperature Precipitation Wind Pressure Humidity
    00:00 +10°C° 0 mm 0 mps 706 mmHg 39%
    01:00 +10°C° 0 mm 0 mps 706 mmHg 39%
    02:00 +10°C° 0 mm 0 mps 706 mmHg 39%
    03:00 +9°C° 0 mm 0 mps 706 mmHg 40%
    04:00 +9°C° 0 mm 0 mps 705 mmHg 40%
    05:00 +9°C° 0 mm 0 mps 705 mmHg 41%
    06:00 +10°C° 0 mm 0 mps 706 mmHg 37%
    07:00 +12°C° 0 mm 0 mps 706 mmHg 34%
    08:00 +13°C° 0 mm 0 mps 706 mmHg 30%
    09:00 +15°C° 0 mm 0 mps 707 mmHg 27%
    10:00 +16°C° 0 mm 0 mps 707 mmHg 23%
    11:00 +18°C° 0 mm 0 mps 707 mmHg 19%
    12:00 +21°C° 0 mm 1 mps 707 mmHg 18%
    13:00 +22°C° 0 mm 1 mps 706 mmHg 16%
    14:00 +23°C° 0 mm 1 mps 706 mmHg 14%
    15:00 +22°C° 0 mm 1 mps 706 mmHg 16%
    16:00 +21°C° 0 mm 1 mps 706 mmHg 18%
    17:00 +20°C° 0 mm 1 mps 705 mmHg 20%
    18:00 +19°C° 0 mm 1 mps 705 mmHg 23%
    19:00 +15°C° 0 mm 0 mps 706 mmHg 27%
    20:00 +14°C° 0 mm 0 mps 706 mmHg 31%
    21:00 +13°C° 0 mm 0 mps 706 mmHg 32%
    22:00 +13°C° 0 mm 0 mps 706 mmHg 33%
    23:00 +12°C° 0 mm 0 mps 705 mmHg 35%

    Day after tomorrow, 21 January, Monday

    Time Temperature Precipitation Wind Pressure Humidity
    00:00 +12°C° 0 mm 0 mps 705 mmHg 34%
    01:00 +11°C° 0 mm 0 mps 705 mmHg 34%
    02:00 +11°C° 0 mm 0 mps 705 mmHg 34%
    03:00 +11°C° 0 mm 0 mps 705 mmHg 35%
    04:00 +10°C° 0 mm 0 mps 704 mmHg 36%
    05:00 +10°C° 0 mm 0 mps 704 mmHg 37%
    06:00 +11°C° 0 mm 0 mps 705 mmHg 34%
    07:00 +13°C° 0 mm 0 mps 705 mmHg 32%
    08:00 +15°C° 0 mm 0 mps 706 mmHg 29%
    09:00 +17°C° 0 mm 0 mps 706 mmHg 25%
    10:00 +18°C° 0 mm 0 mps 707 mmHg 20%
    11:00 +20°C° 0 mm 0 mps 707 mmHg 15%
    12:00 +21°C° 0 mm 0 mps 706 mmHg 14%
    13:00 +24°C° 0 mm 1 mps 706 mmHg 13%
    14:00 +24°C° 0 mm 1 mps 706 mmHg 13%
    15:00 +24°C° 0 mm 1 mps 705 mmHg 15%
    16:00 +23°C° 0 mm 1 mps 705 mmHg 18%
    17:00 +22°C° 0 mm 1 mps 705 mmHg 21%
    18:00 +21°C° 0 mm 1 mps 705 mmHg 25%
    19:00 +19°C° 0 mm 1 mps 705 mmHg 29%
    20:00 +18°C° 0 mm 1 mps 706 mmHg 34%
    21:00 +18°C° 0 mm 1 mps 705 mmHg 36%
    22:00 +16°C° 0 mm 1 mps 705 mmHg 38%
    23:00 +15°C° 0 mm 1 mps 705 mmHg 40%

    22 January, Tuesday

    Time Temperature Precipitation Wind Pressure Humidity
    00:00 +15°C° 0 mm 1 mps 705 mmHg 40%
    01:00 +14°C° 0 mm 1 mps 704 mmHg 41%
    02:00 +13°C° 0 mm 1 mps 704 mmHg 41%
    03:00 +13°C° 0 mm 1 mps 704 mmHg 40%
    04:00 +11°C° 0 mm 0 mps 704 mmHg 40%
    05:00 +11°C° 0 mm 0 mps 704 mmHg 39%
    06:00 +12°C° 0 mm 0 mps 704 mmHg 34%
    07:00 +14°C° 0 mm 0 mps 705 mmHg 30%
    08:00 +16°C° 0 mm 0 mps 705 mmHg 25%
    09:00 +17°C° 0 mm 0 mps 706 mmHg 22%
    10:00 +19°C° 0 mm 0 mps 706 mmHg 19%
    11:00 +21°C° 0 mm 0 mps 706 mmHg 15%
    12:00 +24°C° 0 mm 1 mps 706 mmHg 14%
    13:00 +25°C° 0 mm 1 mps 705 mmHg 13%
    14:00 +26°C° 0 mm 1 mps 705 mmHg 12%
    15:00 +25°C° 0 mm 1 mps 705 mmHg 13%
    16:00 +24°C° 0 mm 1 mps 704 mmHg 15%
    17:00 +23°C° 0 mm 1 mps 704 mmHg 16%
    18:00 +21°C° 0 mm 1 mps 704 mmHg 21%
    19:00 +19°C° 0 mm 1 mps 704 mmHg 25%
    20:00 +15°C° 0 mm 0 mps 704 mmHg 30%
    21:00 +15°C° 0 mm 0 mps 704 mmHg 33%
    22:00 +14°C° 0 mm 0 mps 704 mmHg 35%
    23:00 +13°C° 0 mm 0 mps 704 mmHg 38%

    23 January, Wednesday

    Time Temperature Precipitation Wind Pressure Humidity
    00:00 +13°C° 0 mm 0 mps 703 mmHg 39%
    01:00 +12°C° 0 mm 0 mps 703 mmHg 39%
    02:00 +12°C° 0 mm 0 mps 702 mmHg 40%
    03:00 +12°C° 0 mm 0 mps 702 mmHg 42%
    04:00 +12°C° 0 mm 1 mps 702 mmHg 43%
    05:00 +12°C° 0 mm 1 mps 702 mmHg 44%
    06:00 +14°C° 0 mm 1 mps 703 mmHg 41%
    07:00 +15°C° 0 mm 1 mps 703 mmHg 37%
    08:00 +18°C° 0 mm 1 mps 704 mmHg 34%
    09:00 +20°C° 0 mm 1 mps 704 mmHg 29%
    10:00 +21°C° 0 mm 2 mps 704 mmHg 25%
    11:00 +24°C° 0 mm 2 mps 704 mmHg 20%
    12:00 +25°C° 0 mm 2 mps 704 mmHg 19%
    13:00 +26°C° 0 mm 3 mps 703 mmHg 18%
    14:00 +26°C° 0 mm 3 mps 703 mmHg 17%
    15:00 +26°C° 0 mm 2 mps 703 mmHg 18%
    16:00 +25°C° 0 mm 2 mps 702 mmHg 20%
    17:00 +24°C° 0 mm 1 mps 702 mmHg 22%
    18:00 +22°C° 0 mm 1 mps 702 mmHg 28%
    19:00 +20°C° 0 mm 1 mps 702 mmHg 34%
    20:00 +18°C° 0 mm 1 mps 702 mmHg 39%
    21:00 +18°C° 0 mm 1 mps 702 mmHg 41%
    22:00 +16°C° 0 mm 1 mps 702 mmHg 43%
    23:00 +16°C° 0 mm 1 mps 702 mmHg 45%

    24 January, Thursday

    Time Temperature Precipitation Wind Pressure Humidity
    00:00 +15°C° 0 mm 1 mps 702 mmHg 44%
    01:00 +14°C° 0 mm 0 mps 702 mmHg 43%
    02:00 +14°C° 0 mm 0 mps 702 mmHg 42%
    03:00 +13°C° 0 mm 0 mps 702 mmHg 41%
    04:00 +14°C° 0 mm 1 mps 702 mmHg 39%
    05:00 +14°C° 0 mm 1 mps 702 mmHg 37%
    06:00 +15°C° 0 mm 1 mps 702 mmHg 32%
    07:00 +16°C° 0 mm 0 mps 703 mmHg 27%
    08:00 +18°C° 0 mm 0 mps 704 mmHg 21%
    09:00 +22°C° 0 mm 1 mps 704 mmHg 18%
    10:00 +24°C° 0 mm 1 mps 705 mmHg 15%
    11:00 +27°C° 0 mm 2 mps 705 mmHg 11%
    12:00 +27°C° 0 mm 2 mps 705 mmHg 11%
    13:00 +28°C° 0 mm 2 mps 704 mmHg 10%
    14:00 +29°C° 0 mm 2 mps 704 mmHg 10%
    15:00 +28°C° 0 mm 2 mps 704 mmHg 13%
    16:00 +26°C° 0 mm 1 mps 704 mmHg 16%
    17:00 +25°C° 0 mm 1 mps 704 mmHg 19%
    18:00 +24°C° 0 mm 1 mps 704 mmHg 28%
    19:00 +22°C° 0 mm 1 mps 704 mmHg 36%
    20:00 +21°C° 0 mm 1 mps 704 mmHg 45%
    21:00 +20°C° 0 mm 1 mps 704 mmHg 51%
    22:00 +20°C° 0 mm 1 mps 704 mmHg 57%
    23:00 +19°C° 0 mm 1 mps 704 mmHg 63%
    Show more